EUTELSAT 70B

Last updated on Jan. 15, 2021, 6:31 a.m. UTC

1 39020U 12069A   21014.89541392 -.00000050  00000-0  00000-0 0  9997
2 39020   0.0534  28.6854 0004624 202.3044 276.3881  1.00271749 29661
UTC
Height (km)
Latitude
Longitude
Inclination
Orbital Period
UTC large
Height (km)
Speed (km/s)
/
Latitude / Longitude
Inclination (degrees)
Orbital Period (minutes)
Azimuth
Elevation
Range (km)
Doppler Factor
iOS Compass Heading
iOS Angle

Next 30 passes for location: Hong Kong

Rise time Rise Azimuth (degrees) Set time Set Azimuth (degrees) Duration Max altitude (degrees)

No matching passes for this satellites